Regional Weather Roundup
Issued by NWS

Home | Current Version | Previous Version | Text Only | Print | Product List | Glossary Off
Versions: 1 2 3 4 5 6 7 8 9 10 11 12 13 14 15 16 17 18 19 20 21 22 23 24 25 26 27 28 29 30 31 32 33 34 35 36 37 38 39 40 41 42 43 44 45 46 47 48 49 50

000
ASUS43 KDMX 190506
RWRIA

WEATHER ROUNDUP FOR IOWA
NATIONAL WEATHER SERVICE DES MOINES IA
1200 AM CDT THU APR 19 2018

NOTE: "FAIR" INDICATES FEW OR NO CLOUDS BELOW 12,000 FEET WITH NO
SIGNIFICANT WEATHER AND/OR OBSTRUCTIONS TO VISIBILITY.

* - THESE STATIONS ARE NOT NWS STATIONS...THUS NOT UNDER NWS
QUALITY CONTROL.  THEY ALSO DO NOT REPORT WEATHER SUCH
AS PRECIPITATION OR FOG.

IAZ001>003-012>014-020>022-031>034-043>046-190600-
   NORTHWEST IOWA

CITY           SKY/WX    TMP DP  RH WIND       PRES   REMARKS
CARROLL *      CLOUDY    32  30  93 N13       30.22R WCI  22
CHEROKEE *     CLOUDY    33  32  96 NW8       30.24R WCI  26
DENISON *      CLEAR     30  30 100 NW7       30.25R WCI  23
LE MARS *      CLOUDY    34  32  93 CALM      30.25S
ORANGE CITY *  CLOUDY    34  32  93 NW6       30.24R WCI  29
SHELDON *      CLOUDY    32  32 100 NW7       30.23R WCI  26
SIOUX CITY     CLOUDY    34  30  85 N6        30.26R WCI  29
SPENCER        PTCLDY    32  28  85 NW9       30.22R WCI  24
STORM LAKE *   CLOUDY    32  30  93 NW8       30.22R WCI  25
$$

IAZ055>058-069>071-079>083-090>094-190600-
   SOUTHWEST IOWA

CITY           SKY/WX    TMP DP  RH WIND       PRES   REMARKS
ATLANTIC *     CLEAR     32  32 100 NW8       30.23R WCI  25
AUDUBON *      PTCLDY    30  28  93 NW6       30.22R WCI  24
CLARINDA *     CLOUDY    34  30  86 N8        30.25R WCI  27
COUNCIL BLFS * CLOUDY    34  34 100 N10       30.23R WCI  26
CRESTON *      CLOUDY    32  28  86 N12       30.21R WCI  23
HARLAN  *      MOCLDY    32  32 100 NW9       30.26R WCI  24
LAMONI         CLOUDY    35  28  75 NW10      30.18R WCI  27
RED OAK *      CLOUDY    34  32  93 NW8       30.24R WCI  27
SHENANDOAH *   CLOUDY    37  32  81 N13       30.24R WCI  29
$$

IAZ047>049-059>061-072>074-084-190600-
   CENTRAL IOWA

CITY           SKY/WX    TMP DP  RH WIND       PRES   REMARKS
AMES           MOCLDY    32  28  85 NW10      30.19R WCI  24
ANKENY *       CLOUDY    34  28  80 NW12      30.21R WCI  25
BOONE *        CLOUDY    32  30  93 NW13      30.18R WCI  22
CHARITON *     PTCLDY    30  28  93 NW9       30.18R WCI  22
DES MOINES     CLOUDY    32  27  81 NW6       30.20R WCI  26
GRINNELL*      MOCLDY    30  29  95 NW9       30.17R WCI  22
KNOXVILLE *    PTCLDY    30  28  93 NW12      30.17R WCI  21
MARSHALLTOWN   MOCLDY    31  29  92 NW14      30.15R WCI  21
NEWTON *       CLOUDY    30  30 100 NW12      30.17R WCI  21
PELLA *        CLEAR     31  28  91 NW10      30.19R WCI  22
PERRY *        FAIR      32  30  94 N13       30.21R WCI  22
$$

IAZ004>006-015-016-023>025-035-036-190600-
   NORTH CENTRAL IOWA

CITY           SKY/WX    TMP DP  RH WIND       PRES   REMARKS
ALGONA *       CLOUDY    32  30  93 NW10      30.19R WCI  24
CLARION *      CLOUDY    28  27  93 NW9       30.19R WCI  20
ESTHERVILLE    CLOUDY    27  24  89 NW15      30.20R WCI  15
FORT DODGE *   CLOUDY    32  29  88 NW5       30.21R WCI  27
MASON CITY     CLOUDY    31  29  92 NW15      30.18R WCI  20
FOREST CITY *  MOCLDY    30  30 100 NW6       30.18R WCI  24
WEBSTER CITY * CLOUDY    32  30  93 NW10      30.17R WCI  24
IOWA FALLS *   CLOUDY    33  31  94 NW15      30.17R WCI  22
$$

IAZ007>011-017>019-026>030-037>042-050>054-066-190600-
   NORTHEAST IOWA

CITY           SKY/WX    TMP DP  RH WIND       PRES   REMARKS
CEDAR RAPIDS   CLOUDY    32  30  92 NW13      30.11R WCI  22
CHARLES CITY * CLOUDY    32  32 100 NW10      30.14R WCI  24
CLINTON *      FLURRIES  32  30  92 NW14      30.07R WCI  22
DECORAH *      MOCLDY    30  30 100 N9        30.10R WCI  22
DUBUQUE        CLOUDY    30  28  92 N13       30.07R WCI  20
MONTICELLO *   CLOUDY    32  30  93 NW9       30.09S WCI  24
OELWEIN *      CLOUDY    30  30 100 NW12      30.11R WCI  21
WATERLOO       CLOUDY    31  29  92 W8        30.13R WCI  23
$$

IAZ064-065-067-068-078-190600-
   EAST CENTRAL IOWA

CITY           SKY/WX    TMP DP  RH WIND       PRES   REMARKS
DAVENPORT      CLOUDY    31  29  92 NW12      30.09S WCI  22
IOWA CITY      FLURRIES  33  29  85 NW10      30.14R WCI  25
MT. PLEASANT * CLOUDY    32  28  86 NW12      30.13R WCI  23
MUSCATINE *    MIX PCPN  34  30  86 NW10      30.12R WCI  26
QUAD CITIES    LGT SNOW  33  31  92 NW14      30.08R FOG     WCI  23
$$

IAZ062-063-075>077-085>089-095>099-190600-
   SOUTHEAST IOWA

CITY           SKY/WX    TMP DP  RH WIND       PRES   REMARKS
BURLINGTON     CLOUDY    34  28  79 NW9       30.11R WCI  27
FAIRFIELD *    CLOUDY    32  28  86 NW12      30.14R WCI  23
FORT MADISON * CLOUDY    34  28  80 NW13      30.13R WCI  25
KEOKUK *       CLOUDY    34  28  80 NW12G18   30.13R WCI  25
OSKALOOSA *    MOCLDY    30  28  92 NW10      30.17R WCI  21
CENTERVILLE *    N/A     32  32 100 W9        30.18R WCI  24
OTTUMWA        PTCLDY    31  27  85 NW12      30.15R WCI  22
WASHINGTON *   CLOUDY    32  32 100 NW15      30.14R WCI  22
$$

ABBREVIATIONS USED IN REMARKS
   TC - TEMPERATURES IN CELSIUS
  WCI - WIND CHILL INDEX
   HX - HEAT INDEX
  VSB - VISIBILITY
$$




USA.gov is the U.S. government's official web portal to all federal, state and local government web resources and services.